Simultaneous Nadir Overpasses (SNOs) Predictions

Prediction of SNOs between LANDSAT-8 and METOP-B Satellite Orbit:

Table of predicted SNOs for the next 14.0 days since TLE Epoch: 12/17/2023
Index Date (LANDSAT-8) Time (LANDSAT-8) Lat,Lon (LANDSAT-8) SZA (LANDSAT-8 ) Date (METOP-B) Time (METOP-B) Lat,Lon (METOP-B) SZA (METOP-B ) Distance(km) Time Diff (sec)
1 12/18/2023 17:31:00 81.27, -40.52 106.86 12/18/2023 17:30:46 81.27, -40.43 106.87 1.44 14
2 12/18/2023 18:20:26 -81.29, 127.44 73.09 12/18/2023 18:21:25 -81.29, 127.56 73.06 1.96 59
3 12/21/2023 13:05:16 81.27, 25.92 106.87 12/21/2023 13:05:03 81.27, 25.88 106.86 0.73 13
4 12/21/2023 13:54:42 -81.29,-166.09 73.08 12/21/2023 13:55:42 -81.29,-166.11 73.06 0.46 60
5 12/24/2023 08:39:31 81.28, 92.58 106.85 12/24/2023 08:39:19 81.28, 92.51 106.84 1.39 12
6 12/24/2023 09:28:58 -81.28, -99.79 73.15 12/24/2023 09:29:59 -81.28, -99.84 73.13 0.89 61
7 12/27/2023 04:13:46 81.26, 158.69 106.69 12/27/2023 04:13:35 81.27, 158.69 106.69 0.55 11
8 12/27/2023 05:03:12 -81.29, -33.27 73.26 12/27/2023 05:04:14 -81.29, -33.26 73.23 0.27 62
9 12/29/2023 23:48:00 81.28,-134.60 106.56 12/29/2023 23:47:50 81.28,-134.43 106.57 2.82 10



Historial Predications of SNOs between LANDSAT-8 and METOP-B
